ZAREMBO AK US current weather conditions

sailwx.info

Wind from 060 at 3 knots gusting 11

Air temperature 1.1° C
Dewpoint -0.3° C

Last reported at 2017-Jan-23 14:55 UTC.
Time now 2017-Jan-23 16:57 UTC

Location: N 56°18' W 132°51'.
View on Google Maps.

See reports from other nearby stations

  
Tides and Currents Weather Stations Pressure Air Temp Water Temp Dewpoint Dewpoint Depression Visibility Wind Speed Wind Dir Waves Ship Positions
date/time (UTC)wind fromknots sea level pressurealtimeterstation pressurevisibilityair tempwater tempwave heightnotes
2017-Jan-23 14:55 060 3 gusting 11 1.1
2017-Jan-23 13:55 321 5 gusting 7 1.7
2017-Jan-23 12:55 328 5 gusting 7 1.7
2017-Jan-23 11:55 302 3 gusting 7 1.7
2017-Jan-23 10:55 088 2 gusting 11 2.8
2017-Jan-23 09:55 319 1 gusting 6 2.8
2017-Jan-23 08:55 292 2 gusting 4 2.2
2017-Jan-23 07:55 308 2 gusting 7 2.2
2017-Jan-23 06:55 299 1 gusting 6 2.8
2017-Jan-23 05:55 327 1 gusting 6 2.8
2017-Jan-23 04:55 319 2 gusting 6 2.2
2017-Jan-23 03:55 325 4 gusting 8 1.7
2017-Jan-23 02:55 346 3 gusting 9 2.2
2017-Jan-23 01:55 353 4 gusting 13 2.2
2017-Jan-23 00:55 320 6 gusting 13 1.7
2017-Jan-22 23:55 329 4 gusting 9 1.7
2017-Jan-22 22:55 325 5 gusting 10 2.2
2017-Jan-22 21:55 325 6 gusting 9 2.2
2017-Jan-22 20:55 337 6 gusting 9 2.2
2017-Jan-22 19:55 305 2 gusting 13 1.7
2017-Jan-22 18:55 303 4 gusting 11 0.6
2017-Jan-22 17:55 299 5 gusting 8 -0.0
2017-Jan-22 16:55 319 5 gusting 11 -0.0
2017-Jan-22 15:55 329 3 gusting 15 -0.0
2017-Jan-22 14:55 335 8 gusting 15 -0.0
2017-Jan-22 13:55 332 10 gusting 17 -0.0
2017-Jan-22 12:55 334 12 gusting 19 -1.1
2017-Jan-22 11:55 336 13 gusting 19 -0.6
2017-Jan-22 10:55 345 11 gusting 21 -0.6
2017-Jan-22 09:55 341 11 gusting 16 -0.6
2017-Jan-22 08:55 334 7 gusting 13 -1.1
2017-Jan-22 07:55 351 6 gusting 15 -1.7
2017-Jan-22 06:55 324 9 gusting 16 -1.7
2017-Jan-22 05:55 329 9 gusting 17 -1.7
2017-Jan-22 04:55 333 9 gusting 15 -2.2
2017-Jan-22 03:55 329 8 gusting 14 -2.8
2017-Jan-22 02:55 334 12 gusting 18 -2.8
2017-Jan-22 01:55 343 10 gusting 17 -2.8
2017-Jan-22 00:55 334 12 gusting 19 -2.2
2017-Jan-21 23:55 344 6 gusting 10 -0.0
2017-Jan-21 22:55 301 5 gusting 11 0.6
2017-Jan-21 21:55 328 8 gusting 15 -0.0
2017-Jan-21 20:55 342 10 gusting 15 -1.1
2017-Jan-21 19:55 332 7 gusting 17 -1.1
2017-Jan-21 18:55 335 10 gusting 17 -2.2
2017-Jan-21 17:55 333 8 gusting 20 -3.9
2017-Jan-21 16:55 332 13 gusting 24 -3.3